EW5678 Weather Reports


Display with metric or nautical units.
time (UTC)temp
F
wind
direction
speed
MPH
gust
MPH
rain 1hr
in
rain 24hr
in
rain mn
in
humidity
%
barometer
mb
20260901114545 68 169 6.0 10.0 0.00 1.09 1.09 97 1005.8
20260901113645 68 165 7.0 11.0 0.00 1.09 1.09 97 1005.9
20260901112745 67 165 6.0 10.0 0.00 1.09 1.09 97 1005.8
20260901111845 67 167 6.0 10.0 0.00 1.09 1.09 97 1005.8
20260901110945 67 166 7.0 10.0 0.00 1.09 1.09 97 1005.8
20260901110045 67 164 9.0 11.0 0.00 1.09 1.09 97 1005.7
20260901104245 67 164 7.0 11.0 0.00 1.09 1.09 97 1005.6
20260901103345 67 164 8.0 11.0 0.00 1.09 1.09 97 1005.5
20260901102445 67 164 6.0 11.0 0.00 1.09 1.09 97 1005.6
20260901100645 67 148 3.0 6.0 0.00 1.09 1.09 97 1005.8
20260901095745 67 156 3.0 6.0 0.01 1.09 1.09 97 1005.6
20260901094845 67 154 3.0 7.0 0.01 1.09 1.09 97 1005.6
20260901093945 67 171 2.0 7.0 0.01 1.09 1.09 97 1005.7
20260901092145 67 157 1.0 6.0 0.01 1.09 1.09 97 1005.8
20260901091245 67 156 3.0 7.0 0.01 1.09 1.09 97 1005.8
20260901090345 67 163 4.0 7.0 0.02 1.08 1.08 97 1005.9
20260901082745 67 170 4.0 7.0 0.04 1.08 1.08 97 1006.2
20260901081845 67 176 2.0 6.0 0.05 1.08 1.08 97 1006.3
20260901080945 67 181 3.0 6.0 0.10 1.08 1.08 97 1006.4
20260901080045 67 175 4.0 8.0 0.22 1.06 1.06 97 1006.2
20260901074245 67 184 4.0 7.0 0.40 1.06 1.06 97 1006.5
20260901073345 67 167 3.0 9.0 0.47 1.05 1.06 97 1006.4
20260901072445 67 167 3.0 8.0 0.51 1.03 1.03 96 1006.8
20260901071546 67 165 4.0 7.0 0.52 1.00 1.01 96 1006.3
20260901070645 68 173 2.0 5.0 0.57 0.94 0.95 96 1006.4
20260901065745 68 161 3.0 7.0 0.49 0.80 0.80 96 1006.6
20260901064845 68 181 2.0 7.0 0.47 0.72 0.73 96 1006.5
20260901063945 68 155 1.0 6.0 0.44 0.62 0.63 96 1006.4
20260901063045 67 160 6.0 9.0 0.43 0.56 0.57 96 1006.5
20260901062145 68 165 4.0 8.0 0.44 0.51 0.51 96 1006.6
20260901061245 68 169 5.0 9.0 0.40 0.44 0.44 96 1006.7
20260901060345 68 186 3.0 7.0 0.33 0.34 0.34 95 1006.9
20260901055445 68 223 3.0 6.0 0.28 0.28 0.29 95 1007.1
20260901054545 69 223 3.0 6.0 0.22 0.22 0.22 95 1007.2
20260901053645 69 175 3.0 6.0 0.15 0.15 0.16 94 1007.3
20260901052745 69 166 5.0 7.0 0.11 0.11 0.11 94 1007.2
20260901050945 69 171 5.0 8.0 0.02 0.02 0.03 92 1007.4
20260901050045 70 163 7.0 9.0 0.00 0.00 0.00 92 1007.3
20260901045145 70 162 7.0 10.0 0.00 0.00 0.00 91 1007.1
20260901044245 70 162 7.0 8.0 0.00 0.00 0.00 91 1007.2
20260901043345 70 162 6.0 7.0 0.00 0.00 0.00 91 1007.1
20260901042445 70 168 5.0 7.0 0.00 0.00 0.00 91 1007.2
20260901041545 70 173 4.0 8.0 0.00 0.00 0.00 91 1007.2
20260901040645 70 168 5.0 9.0 0.00 0.00 0.00 91 1007.3
20260901035745 70 175 5.0 8.0 0.00 0.00 0.00 91 1007.3
20260901034845 70 169 5.0 8.0 0.00 0.00 0.00 91 1007.4
20260901033945 70 169 4.0 8.0 0.00 0.00 0.00 90 1007.6
20260901033045 70 179 4.0 9.0 0.00 0.00 0.00 90 1007.7
20260901032145 70 184 4.0 9.0 0.00 0.00 0.00 90 1007.7
20260901031245 70 207 3.0 7.0 0.00 0.00 0.00 90 1007.8
20260901030345 70 193 4.0 8.0 0.00 0.00 0.00 89 1007.8
20260901025445 70 183 4.0 7.0 0.00 0.00 0.00 89 1007.8
20260901024545 69 172 5.0 9.0 0.00 0.00 0.00 89 1007.9
20260901023645 69 174 5.0 9.0 0.00 0.00 0.00 89 1007.9
20260901022745 69 168 6.0 9.0 0.00 0.00 0.00 89 1007.9
20260901020045 69 163 8.0 11.0 0.00 0.01 0.00 88 1008.0
20260901014245 69 160 7.0 10.0 0.00 0.01 0.00 87 1008.0
20260901013345 69 163 7.0 10.0 0.00 0.01 0.00 86 1008.1
20260901012445 69 163 6.0 9.0 0.00 0.02 0.00 86 1008.1
20260901011545 69 163 6.0 9.0 0.00 0.02 0.00 86 1008.1
20260901010645 69 162 7.0 10.0 0.00 0.02 0.00 85 1008.1
20260901005745 69 165 7.0 9.0 0.00 0.02 0.00 85 1008.1
20260901003945 69 164 5.0 8.0 0.00 0.02 0.00 85 1008.0
20260901003045 70 158 3.0 8.0 0.00 0.02 0.00 84 1008.0
20260901002145 70 159 3.0 8.0 0.00 0.02 0.00 84 1008.0
20260901001244 70 167 6.0 9.0 0.00 0.02 0.00 85 1008.0
20260831235445 70 162 4.0 8.0 0.00 0.02 0.02 85 1007.9
20260831234545 70 164 5.0 8.0 0.00 0.02 0.02 84 1008.0
20260831233645 70 164 6.0 9.0 0.00 0.02 0.02 84 1008.2
20260831232745 70 161 4.0 8.0 0.00 0.02 0.02 84 1008.3
20260831231845 70 165 4.0 7.0 0.00 0.02 0.02 84 1008.5
20260831230945 70 168 4.0 8.0 0.00 0.02 0.02 84 1008.4
20260831230045 70 165 7.0 11.0 0.00 0.02 0.02 84 1008.3
20260831223345 70 163 8.0 11.0 0.00 0.02 0.02 83 1008.2
20260831222444 70 165 6.0 10.0 0.00 0.02 0.02 82 1008.3
20260831220644 71 163 4.0 10.0 0.00 0.02 0.02 82 1008.4
20260831215745 71 160 4.0 8.0 0.00 0.02 0.02 81 1008.3
20260831214845 71 163 3.0 8.0 0.00 0.02 0.02 81 1008.3
20260831213945 71 162 6.0 11.0 0.00 0.02 0.02 82 1008.3
20260831213045 71 166 8.0 12.0 0.00 0.02 0.02 81 1008.3
20260831212145 71 161 7.0 10.0 0.00 0.02 0.02 80 1008.4
20260831211245 71 159 6.0 10.0 0.00 0.02 0.02 80 1008.4
20260831210345 71 166 6.0 11.0 0.00 0.02 0.02 78 1008.3
20260831205444 72 168 8.0 12.0 0.00 0.02 0.02 78 1008.4
20260831204545 72 169 6.0 13.0 0.00 0.02 0.02 77 1008.4
20260831203644 72 165 8.0 13.0 0.00 0.02 0.02 78 1008.5
20260831201845 73 161 7.0 11.0 0.00 0.02 0.02 78 1008.5
20260831200945 73 162 6.0 11.0 0.00 0.02 0.02 77 1008.6
20260831200045 74 197 3.0 7.0 0.00 0.02 0.02 76 1008.7
20260831195145 74 185 2.0 5.0 0.00 0.02 0.02 75 1008.7
20260831193344 76 142 1.0 5.0 0.00 0.02 0.02 72 1008.7
20260831192445 75 161 2.0 4.0 0.00 0.02 0.02 72 1008.8
20260831191544 75 148 2.0 4.0 0.00 0.02 0.02 73 1008.7
20260831190645 74 160 2.0 5.0 0.00 0.02 0.02 75 1008.9
20260831185744 74 28 1.0 6.0 0.00 0.02 0.02 80 1009.1
20260831184845 74 39 4.0 9.0 0.00 0.02 0.02 80 1009.1
20260831183944 73 46 6.0 12.0 0.00 0.02 0.02 81 1009.2
20260831183044 73 29 6.0 11.0 0.00 0.02 0.02 80 1009.3
20260831182145 75 309 2.0 4.0 0.00 0.02 0.02 74 1009.5
20260831180345 75 114 2.0 6.0 0.00 0.02 0.02 72 1009.5
20260831175444 76 103 2.0 6.0 0.00 0.02 0.02 73 1009.4
20260831174544 75 105 3.0 8.0 0.00 0.02 0.02 74 1009.3
20260831173644 75 129 3.0 6.0 0.00 0.02 0.02 73 1009.3
20260831172744 75 92 3.0 7.0 0.00 0.02 0.02 75 1009.3
20260831171845 74 97 3.0 7.0 0.00 0.02 0.02 75 1009.5
20260831170945 74 57 4.0 8.0 0.00 0.02 0.02 76 1009.6
20260831165144 74 59 4.0 13.0 0.00 0.02 0.02 76 1009.6
20260831164244 74 79 3.0 9.0 0.00 0.02 0.02 75 1009.6
20260831163345 74 72 2.0 8.0 0.00 0.02 0.02 76 1009.7
20260831162444 74 99 3.0 6.0 0.00 0.02 0.02 73 1009.8
20260831160644 73 90 4.0 6.0 0.00 0.02 0.02 73 1009.7
20260831154845 74 97 2.0 5.0 0.00 0.02 0.02 72 1009.7
20260831153045 74 79 4.0 8.0 0.00 0.02 0.02 72 1009.7
20260831152145 74 75 3.0 9.0 0.00 0.02 0.02 69 1009.9
20260831150344 73 90 6.0 11.0 0.00 0.02 0.02 71 1009.8
20260831145445 72 86 6.0 11.0 0.00 0.02 0.02 74 1009.9
20260831144544 73 65 5.0 10.0 0.00 0.02 0.02 73 1010.1
20260831143645 72 85 5.0 11.0 0.00 0.02 0.02 77 1010.1
20260831142744 72 68 6.0 13.0 0.00 0.02 0.02 77 1009.9
20260831140944 71 51 5.0 10.0 0.00 0.02 0.02 79 1010.0
20260831135144 70 74 6.0 12.0 0.00 0.02 0.02 82 1009.8
20260831134244 69 52 4.0 10.0 0.00 0.02 0.02 84 1009.9
20260831133344 69 39 5.0 10.0 0.00 0.02 0.02 85 1009.7
20260831132445 69 42 6.0 10.0 0.00 0.02 0.02 85 1009.5
20260831125744 69 39 9.0 14.0 0.00 0.02 0.02 85 1009.5
20260831124844 69 44 9.0 17.0 0.00 0.02 0.02 85 1009.6
20260831123944 69 38 11.0 17.0 0.00 0.02 0.02 85 1009.4
20260831123045 68 40 9.0 17.0 0.00 0.02 0.02 86 1009.5
20260831122144 68 41 10.0 15.0 0.00 0.02 0.02 86 1009.5
20260831121244 67 40 11.0 15.0 0.00 0.02 0.02 87 1009.6
20260831120344 67 39 11.0 14.0 0.00 0.02 0.02 87 1009.5
20260831115445 67 36 8.0 13.0 0.00 0.02 0.02 88 1009.4